Location: Baumgarten
(49.0970°N, 12.7493°E)
Time: 18:46:33
(UTC+00:00)

COSMOS 2455 - Pass Details

Date: 05 July 2020
Orbit: 898 x 911 km, 67.1° (Epoch: 12 August)

Event Time Altitude Azimuth Distance (km) Brightness Sun altitude
Rises 23:26:40 0° 323° (NW) 3,552 6.7 -18.2°
Reaches altitude 10° 23:29:12 10° 321° (NW) 2,607 5.9 -18.2°
Maximum altitude 23:35:11 66° 241° (WSW) 993 2.9 -18.1°
Enters shadow 23:38:24 28° 167° (SSE) 1,631 3.6 -18.0°
